This is the latest recevied weather packets stored in our database for station/object PY2UEP-1. If no packets are shown the sender has not sent any weather packets the latest 10 day(s).
| Time | Temp. | Humidity | Pressure | Rain* | Wind** | Luminosity | Snow |
|---|---|---|---|---|---|---|---|
| 1777731942 | 29.44° C | 48% | 1021.9 hPa | 0 mm | - | - | - |
| 1777731642 | 28.33° C | 50% | 1021.9 hPa | 0 mm | - | - | - |
| 1777731341 | 28.33° C | 50% | 1021.9 hPa | 0 mm | - | - | - |
| 1777731042 | 28.33° C | 49% | 1022.1 hPa | 0 mm | - | - | - |
| 1777730742 | 28.33° C | 49% | 1022.2 hPa | 0 mm | - | - | - |
| 1777730441 | 28.33° C | 50% | 1022.3 hPa | 0 mm | - | - | - |
| 1777730142 | 28.33° C | 50% | 1022.4 hPa | 0 mm | - | - | - |
| 1777729842 | 28.33° C | 51% | 1022.3 hPa | 0 mm | - | - | - |
| 1777729541 | 28.33° C | 52% | 1022.4 hPa | 0 mm | - | - | - |
| 1777729242 | 27.78° C | 52% | 1022.4 hPa | 0 mm | - | - | - |
| 1777728941 | 27.22° C | 53% | 1022.4 hPa | 0 mm | - | - | - |
| 1777728641 | 27.22° C | 54% | 1022.4 hPa | 0 mm | - | - | - |
| 1777728342 | 27.22° C | 54% | 1022.4 hPa | 0 mm | - | - | - |
| 1777728042 | 27.22° C | 54% | 1022.6 hPa | 0 mm | - | - | - |
| 1777727741 | 27.22° C | 55% | 1022.5 hPa | 0 mm | - | - | - |
| 1777727442 | 26.67° C | 54% | 1022.5 hPa | 0 mm | - | - | - |
| 1777727141 | 26.67° C | 58% | 1022.6 hPa | 0 mm | - | - | - |
| 1777726841 | 26.11° C | 58% | 1022.6 hPa | 0 mm | - | - | - |
| 1777726542 | 25.56° C | 57% | 1022.6 hPa | 0 mm | - | - | - |
| 1777726241 | 25.56° C | 60% | 1022.5 hPa | 0 mm | - | - | - |
| 1777725941 | 25° C | 62% | 1022.5 hPa | 0 mm | - | - | - |
| 1777725642 | 25° C | 61% | 1022.6 hPa | 0 mm | - | - | - |
| 1777725341 | 24.44° C | 63% | 1022.6 hPa | 0 mm | - | - | - |
| 1777725041 | 24.44° C | 63% | 1022.4 hPa | 0 mm | - | - | - |
| 1777724741 | 24.44° C | 63% | 1022.4 hPa | 0 mm | - | - | - |
* Rain since midnight (hover to see other rain measurements)
** Current wind speed in m/s (hover to see current wind gust speed)